Location: *
(51.1248°S, 108.4023°W)
Time: 04:45:46
(UTC+00:00)

Cosmos 2278 Rocket - Pass Details

Date: 26 October 2021
Orbit: 841 x 845 km, 71.0° (Epoch: 01 December)

Event Time Altitude Azimuth Distance (km) Brightness Sun altitude
Exits shadow 07:44:49 24° 271° (W) 1,690 3.6 -25.5°
Maximum altitude 07:47:20 35° 226° (SW) 1,355 3.5 -25.4°
Drops below altitude 10° 07:52:35 10° 160° (SSE) 2,499 5.7 -25.2°
Sets 07:55:17 0° 151° (SSE) 3,440 6.6 -25.1°
